Beidou DW 33

operational
NORAD ID: 43581 Int'l Des: 2018-062 Owner: CNSA Country: CN Constellation: BeiDou
MEOCIRCULAR

Beidou DW 33について

説明を読み込み中...

リアルタイム位置

3D地球を読み込み中...

次回通過

高度履歴

Altitude vs Time

uPlot chart will show altitude changes over time

軌道要素

1 43581U 18062A 26034.94196907 .00000025 00000-0 00000+0 0 9994
2 43581 54.0899 186.8330 0001685 340.9815 18.9578 1.86228692 51151
Epoch: Feb 3, 2026 • Age: 22 hours

現在のステータス

高度 21546.9 km
速度 3.78 km/s
衛星直下点 -53.40°S, 4.57°W
打ち上げ日 Jul 29, 2018
運用期間 7.5 years
タイプ navigation

打ち上げグループ

Unknown Vehicle • BeiDou Launch 30 • 2 satellites

技術仕様

分類 Payload
質量 1014.00 kg
乾燥質量 850.00 kg
総質量 1014.00 kg
長さ 2.20 m
直径 1.70 m
スパン 10.00 m
形状 Box + 2 Pan
製造者 CAST
バスタイプ BD-3M
フェーズステータス In Orbit
所有者/国 CNSA/CN

大規模コンステレーション

Loading constellations...